Location: Northcutt
(34.7304°N, 84.4305°W)
Time: 21:08:46
(UTC+00:00)

Transit 2A Rocket - Pass Details

Date: 08 October 2022
Orbit: 589 x 912 km, 66.7° (Epoch: 07 December)

Event Time Altitude Azimuth Distance (km) Brightness Sun altitude
Exits shadow 10:16:47 34° 285° (WNW) 973 5.0 -17.5°
Maximum altitude 10:17:17 35° 301° (WNW) 949 5.1 -17.3°
Drops below altitude 10° 10:21:14 10° 9° (N) 1,926 7.2 -16.5°
Sets 10:23:39 0° 18° (NNE) 2,848 8.3 -16.0°
